Regional Weather Roundup
Issued by NWS Cleveland, OH

Home | Current Version | Previous Version | Text Only | Print | Product List | Glossary Off
Versions: 1 2 3 4 5 6 7 8 9 10 11 12 13 14 15 16 17 18 19 20 21 22 23 24 25 26 27 28 29 30 31 32 33 34 35 36 37 38 39 40 41 42 43 44 45 46 47 48 49 50

000
ASUS41 KCLE 222100
RWRCLE
OHIO REGIONAL WEATHER ROUNDUP
NATIONAL WEATHER SERVICE WILMINGTON, OH
500 PM EDT TUE AUG 22 2017

NOTE: "FAIR" INDICATES FEW OR NO CLOUDS BELOW 12,000 FEET WITH NO
SIGNIFICANT WEATHER AND/OR OBSTRUCTIONS TO VISIBILITY.

OHZ001>008-015>018-024>027-034-035-043-044-222200-
   NORTHWEST OHIO

CITY           SKY/WX    TMP DP  RH WIND       PRES   REMARKS
DEFIANCE       LGT RAIN  74  66  76 W15G24    29.83S
FINDLAY        FAIR      80  65  59 W17       29.82F
TOLEDO EXPRESS LGT RAIN  73  70  90 W14       29.81S FOG
TOLEDO EXEC    PTSUNNY   80  67  64 SW17G30   29.80F
LIMA           FAIR      78  67  68 W14       29.85F
$$

OHZ009>014-019>023-028>033-038-089-222200-
   NORTHEAST OHIO

CITY           SKY/WX    TMP DP  RH WIND       PRES   REMARKS
CLE-HOPKINS    PTSUNNY   80  68  66 W17       29.81F
CLE-LAKEFRONT  FAIR      77  67  71 W17G24    29.77F
CUY CO. ARPT   PTSUNNY   79  68  69 W14G23    29.80F
LORAIN-ELYRIA  FAIR      77  64  64 W14G22    29.81F
ASHTABULA      PTSUNNY   74  70  87 W14       29.79S
AKRON-CANTON   PTSUNNY   79  63  57 W18G32    29.83F
WOOSTER        NOT AVBL
MANSFIELD      FAIR      77  66  68 W14G29    29.86S
YOUNGSTOWN     CLOUDY    75  65  70 W9        29.81R
$$

OHZ042-051>053-060>062-070>072-077>081-222200-
  SOUTHWEST OHIO

CITY           SKY/WX    TMP DP  RH WIND       PRES   REMARKS
CINC-COVINGTON CLOUDY    78  69  73 W12       29.92S
CINC-LUNKEN    FAIR      80  71  74 W13       29.91S
HAMILTON       LGT RAIN  79  69  71 W8        29.91S
DAYTON         NOT AVBL
WRIGHT-PAT AFB PTSUNNY   80  70  70 SW13      29.89S
DAYTON GENERAL FAIR      80  67  64 W12       29.89F
WILMINGTON     FAIR      80  70  71 W14       29.89F
$$

OHZ036-037-039>041-045>050-054>059-063>069-073>076-082>088-222200-
  CENTRAL AND SOUTHEAST OHIO

CITY           SKY/WX    TMP DP  RH WIND       PRES   REMARKS
COLUMBUS       PTSUNNY   81  69  67 W9        29.87S
OSU AIRPORT    PTSUNNY   78  70  76 W15       29.87S
BOLTON FIELD   PTSUNNY   79  70  73 SW10G17   29.89S
RICKENBACK AFB NOT AVBL
NEWARK         PTSUNNY   77  68  73 SW9       29.87F
MARION         PTSUNNY   77  65  66 W13G21    29.86S
LANCASTER      CLOUDY    77  70  79 W7        29.89F
ZANESVILLE     PTSUNNY   77  71  82 SW9       29.87F
NEW PHILLY     PTSUNNY   76  67  73 SW8       29.86F
$$



USA.gov is the U.S. government's official web portal to all federal, state and local government web resources and services.